SB KEPS @ AMSAT $ORB14282.O Orbital Elements 14282.OSCAR HR AMSAT ORBITAL ELEMENTS FOR OSCAR SATELLITES FROM WA5QGD FORT WORTH,TX October 9, 2014 BID: ORB14282.O TO ALL RADIO AMATEURS BT Satellite: AO-07 Catalog number: 07530 Epoch time: 14281.05437147 Element set: 91 Inclination: 101.4870 deg RA of node: 259.2235 deg Eccentricity: 0.0012370 Arg of perigee: 074.9812 deg Mean anomaly: 327.2191 deg Mean motion: 12.53607745 rev/day Decay rate: -3.9e-07 rev/day^2 Epoch rev: 82566 Checksum: 288 Satellite: FO-29 Catalog number: 24278 Epoch time: 14280.03284851 Element set: 492 Inclination: 098.5157 deg RA of node: 278.4578 deg Eccentricity: 0.0350427 Arg of perigee: 007.6215 deg Mean anomaly: 060.0834 deg Mean motion: 13.53032173 rev/day Decay rate: -2.7e-07 rev/day^2 Epoch rev: 89579 Checksum: 321 Satellite: SO-33 Catalog number: 25509 Epoch time: 14282.17715854 Element set: 857 Inclination: 031.4308 deg RA of node: 234.4668 deg Eccentricity: 0.0348917 Arg of perigee: 033.1503 deg Mean anomaly: 082.9741 deg Mean motion: 14.29671943 rev/day Decay rate: 6.42e-06 rev/day^2 Epoch rev: 83347 Checksum: 325 Satellite: RS-22 Catalog number: 27939 Epoch time: 14282.09410831 Element set: 936 Inclination: 097.8212 deg RA of node: 090.6565 deg Eccentricity: 0.0014602 Arg of perigee: 105.9273 deg Mean anomaly: 031.9380 deg Mean motion: 14.65393087 rev/day Decay rate: 7.96e-06 rev/day^2 Epoch rev: 58940 Checksum: 323 Satellite: HO-68 Catalog number: 36122 Epoch time: 14282.20442547 Element set: 21 Inclination: 100.2351 deg RA of node: 330.5425 deg Eccentricity: 0.0007096 Arg of perigee: 340.1904 deg Mean anomaly: 061.8440 deg Mean motion: 13.16318783 rev/day Decay rate: -1.0e-08 rev/day^2 Epoch rev: 23143 Checksum: 244 Satellite: AO-73 Catalog number: 39444 Epoch time: 14281.24630408 Element set: 278 Inclination: 097.7588 deg RA of node: 348.0061 deg Eccentricity: 0.0060131 Arg of perigee: 235.5026 deg Mean anomaly: 124.0498 deg Mean motion: 14.78714250 rev/day Decay rate: 3.642e-05 rev/day^2 Epoch rev: 4617 Checksum: 303 Satellite: EO-79 Catalog number: 40025 Epoch time: 14282.26768261 Element set: 327 Inclination: 097.9717 deg RA of node: 177.0959 deg Eccentricity: 0.0012181 Arg of perigee: 290.6181 deg Mean anomaly: 069.3687 deg Mean motion: 14.85594383 rev/day Decay rate: 3.735e-05 rev/day^2 Epoch rev: 1652 Checksum: 342 /EX SB KEPS @ AMSAT $ORB14282.D Orbital Elements 14282.MICROS HR AMSAT ORBITAL ELEMENTS FOR THE MICROSATS FROM WA5QGD FORT WORTH,TX October 9, 2014 BID: ORB14282.D TO ALL RADIO AMATEURS BT Satellite: UO-11 Catalog number: 14781 Epoch time: 14281.75578463 Element set: 630 Inclination: 097.8389 deg RA of node: 339.5983 deg Eccentricity: 0.0009420 Arg of perigee: 163.6495 deg Mean anomaly: 196.5024 deg Mean motion: 14.81788245 rev/day Decay rate: 9.89e-06 rev/day^2 Epoch rev: 64478 Checksum: 366 Satellite: AO-16 Catalog number: 20439 Epoch time: 14281.05523299 Element set: 143 Inclination: 098.5150 deg RA of node: 216.3027 deg Eccentricity: 0.0011047 Arg of perigee: 179.6786 deg Mean anomaly: 241.1902 deg Mean motion: 14.32399475 rev/day Decay rate: 1.69e-06 rev/day^2 Epoch rev: 29064 Checksum: 303 Satellite: LO-19 Catalog number: 20442 Epoch time: 14281.78187545 Element set: 79 Inclination: 098.4861 deg RA of node: 217.3292 deg Eccentricity: 0.0012258 Arg of perigee: 167.2458 deg Mean anomaly: 192.9038 deg Mean motion: 14.32598932 rev/day Decay rate: 2.20e-06 rev/day^2 Epoch rev: 29094 Checksum: 328 Satellite: AO-27 Catalog number: 22825 Epoch time: 14281.84171838 Element set: 791 Inclination: 098.6744 deg RA of node: 227.3751 deg Eccentricity: 0.0007654 Arg of perigee: 331.2499 deg Mean anomaly: 081.9197 deg Mean motion: 14.29756954 rev/day Decay rate: 2.19e-06 rev/day^2 Epoch rev: 9702 Checksum: 346 Satellite: IO-26 Catalog number: 22826 Epoch time: 14281.45290215 Element set: 548 Inclination: 098.6686 deg RA of node: 227.1897 deg Eccentricity: 0.0008064 Arg of perigee: 323.9746 deg Mean anomaly: 036.0892 deg Mean motion: 14.30060998 rev/day Decay rate: 2.54e-06 rev/day^2 Epoch rev: 9710 Checksum: 326 Satellite: GO-32 Catalog number: 25397 Epoch time: 14281.48168682 Element set: 470 Inclination: 098.4839 deg RA of node: 235.3188 deg Eccentricity: 0.0001231 Arg of perigee: 038.9000 deg Mean anomaly: 075.6814 deg Mean motion: 14.23467952 rev/day Decay rate: 1.17e-06 rev/day^2 Epoch rev: 84398 Checksum: 324 Satellite: NO-44 Catalog number: 26931 Epoch time: 14280.98868566 Element set: 724 Inclination: 067.0505 deg RA of node: 107.5680 deg Eccentricity: 0.0007397 Arg of perigee: 275.3019 deg Mean anomaly: 084.7238 deg Mean motion: 14.30161695 rev/day Decay rate: 9.8e-07 rev/day^2 Epoch rev: 67973 Checksum: 344 Satellite: SO-50 Catalog number: 27607 Epoch time: 14282.14505959 Element set: 537 Inclination: 064.5574 deg RA of node: 244.9114 deg Eccentricity: 0.0061261 Arg of perigee: 340.4927 deg Mean anomaly: 019.3831 deg Mean motion: 14.73984140 rev/day Decay rate: 1.627e-05 rev/day^2 Epoch rev: 63427 Checksum: 311 Satellite: CO-55 Catalog number: 27844 Epoch time: 14282.01490019 Element set: 43 Inclination: 098.6993 deg RA of node: 289.1539 deg Eccentricity: 0.0008677 Arg of perigee: 309.7551 deg Mean anomaly: 103.9918 deg Mean motion: 14.21576956 rev/day Decay rate: 2.51e-06 rev/day^2 Epoch rev: 58475 Checksum: 346 Satellite: CO-57 Catalog number: 27848 Epoch time: 14281.76329372 Element set: 986 Inclination: 098.7087 deg RA of node: 288.6791 deg Eccentricity: 0.0008651 Arg of perigee: 318.2955 deg Mean anomaly: 094.4203 deg Mean motion: 14.21254481 rev/day Decay rate: 3.08e-06 rev/day^2 Epoch rev: 58463 Checksum: 353 Satellite: AO-51 Catalog number: 28375 Epoch time: 14281.07806061 Element set: 963 Inclination: 098.2623 deg RA of node: 224.2029 deg Eccentricity: 0.0083058 Arg of perigee: 012.1397 deg Mean anomaly: 348.1768 deg Mean motion: 14.41449686 rev/day Decay rate: 3.71e-06 rev/day^2 Epoch rev: 54016 Checksum: 312 Satellite: CP3 Catalog number: 31129 Epoch time: 14281.64789782 Element set: 869 Inclination: 097.9478 deg RA of node: 253.9684 deg Eccentricity: 0.0098434 Arg of perigee: 018.4551 deg Mean anomaly: 035.6272 deg Mean motion: 14.54936536 rev/day Decay rate: 2.025e-05 rev/day^2 Epoch rev: 39653 Checksum: 356 Satellite: CO-65 Catalog number: 32785 Epoch time: 14282.13861389 Element set: 85 Inclination: 097.6857 deg RA of node: 329.6300 deg Eccentricity: 0.0014266 Arg of perigee: 168.3930 deg Mean anomaly: 249.0482 deg Mean motion: 14.85643326 rev/day Decay rate: 2.273e-05 rev/day^2 Epoch rev: 34894 Checksum: 341 Satellite: PRISM Catalog number: 33493 Epoch time: 14282.28126338 Element set: 379 Inclination: 098.2553 deg RA of node: 102.8851 deg Eccentricity: 0.0018552 Arg of perigee: 072.5723 deg Mean anomaly: 039.8722 deg Mean motion: 14.90264071 rev/day Decay rate: 4.787e-05 rev/day^2 Epoch rev: 30916 Checksum: 313 Satellite: SOHLA-1 Catalog number: 33496 Epoch time: 14281.80583645 Element set: 484 Inclination: 098.1837 deg RA of node: 043.1089 deg Eccentricity: 0.0005511 Arg of perigee: 233.3036 deg Mean anomaly: 246.6890 deg Mean motion: 14.70929488 rev/day Decay rate: 8.01e-06 rev/day^2 Epoch rev: 30621 Checksum: 308 Satellite: TISAT-1 Catalog number: 36799 Epoch time: 14282.16994589 Element set: 626 Inclination: 098.0192 deg RA of node: 015.0572 deg Eccentricity: 0.0012638 Arg of perigee: 312.6296 deg Mean anomaly: 110.8566 deg Mean motion: 14.86250285 rev/day Decay rate: 2.924e-05 rev/day^2 Epoch rev: 22964 Checksum: 332 Satellite: STUDSAT Catalog number: 36801 Epoch time: 14282.17799868 Element set: 905 Inclination: 098.0391 deg RA of node: 025.5039 deg Eccentricity: 0.0007192 Arg of perigee: 271.1552 deg Mean anomaly: 150.0904 deg Mean motion: 14.99257449 rev/day Decay rate: 1.7752e-04 rev/day^2 Epoch rev: 23019 Checksum: 317 Satellite: ALMASAT-1 Catalog number: 38078 Epoch time: 14282.10798738 Element set: 177 Inclination: 069.4661 deg RA of node: 143.3023 deg Eccentricity: 0.0573718 Arg of perigee: 240.1470 deg Mean anomaly: 199.2848 deg Mean motion: 14.55806864 rev/day Decay rate: 2.9766e-04 rev/day^2 Epoch rev: 13818 Checksum: 346 Satellite: XATCOBEO Catalog number: 38082 Epoch time: 14243.34478676 Element set: 563 Inclination: 069.3815 deg RA of node: 097.0364 deg Eccentricity: 0.0033293 Arg of perigee: 225.1799 deg Mean anomaly: 135.4582 deg Mean motion: 16.41261006 rev/day Decay rate: 1.3583328e-01 rev/day^2 Epoch rev: 13623 Checksum: 317 Satellite: CUBEBUG-1 Catalog number: 39153 Epoch time: 14282.10540724 Element set: 554 Inclination: 098.0365 deg RA of node: 002.1573 deg Eccentricity: 0.0017270 Arg of perigee: 347.8125 deg Mean anomaly: 012.2665 deg Mean motion: 14.78033866 rev/day Decay rate: 1.520e-05 rev/day^2 Epoch rev: 7838 Checksum: 283 Satellite: ESTCUBE-1 Catalog number: 39161 Epoch time: 14282.09261203 Element set: 554 Inclination: 098.0920 deg RA of node: 002.1301 deg Eccentricity: 0.0010386 Arg of perigee: 041.0587 deg Mean anomaly: 319.1399 deg Mean motion: 14.70249779 rev/day Decay rate: 1.049e-05 rev/day^2 Epoch rev: 7633 Checksum: 280 Satellite: DUCHIFAT-1 Catalog number: 40021 Epoch time: 14282.25674247 Element set: 333 Inclination: 097.9684 deg RA of node: 177.1292 deg Eccentricity: 0.0012137 Arg of perigee: 292.2418 deg Mean anomaly: 067.7444 deg Mean motion: 14.85825001 rev/day Decay rate: 5.113e-05 rev/day^2 Epoch rev: 1651 Checksum: 283 Satellite: NANOSATCBR1 Catalog number: 40024 Epoch time: 14282.26484595 Element set: 324 Inclination: 097.9658 deg RA of node: 177.0964 deg Eccentricity: 0.0011471 Arg of perigee: 288.5619 deg Mean anomaly: 071.4298 deg Mean motion: 14.85681701 rev/day Decay rate: 4.534e-05 rev/day^2 Epoch rev: 1651 Checksum: 320 Satellite: DTUSAT-2 Catalog number: 40030 Epoch time: 14282.36276030 Element set: 320 Inclination: 097.9661 deg RA of node: 177.1107 deg Eccentricity: 0.0010847 Arg of perigee: 281.8488 deg Mean anomaly: 078.1457 deg Mean motion: 14.85218243 rev/day Decay rate: 3.731e-05 rev/day^2 Epoch rev: 1653 Checksum: 287 Satellite: ANTELSAT Catalog number: 40034 Epoch time: 14282.24240985 Element set: 330 Inclination: 097.9677 deg RA of node: 174.5945 deg Eccentricity: 0.0060373 Arg of perigee: 202.0853 deg Mean anomaly: 157.7745 deg Mean motion: 14.71492568 rev/day Decay rate: 2.718e-05 rev/day^2 Epoch rev: 1637 Checksum: 313 /EX SB KEPS @ AMSAT $ORB14282.W Orbital Elements 14282.WEATHER HR AMSAT ORBITAL ELEMENTS FOR WEATHER SATELLITES FROM WA5QGD FORT WORTH,TX October 9, 2014 BID: ORB14282.W TO ALL RADIO AMATEURS BT Satellite: MET-2/21 Catalog number: 22782 Epoch time: 14281.44717972 Element set: 193 Inclination: 082.5476 deg RA of node: 083.4362 deg Eccentricity: 0.0021120 Arg of perigee: 308.7956 deg Mean anomaly: 106.0735 deg Mean motion: 13.83745461 rev/day Decay rate: 6.7e-07 rev/day^2 Epoch rev: 6578 Checksum: 312 Satellite: OKEAN-4 Catalog number: 23317 Epoch time: 14282.17655370 Element set: 676 Inclination: 082.5373 deg RA of node: 321.0474 deg Eccentricity: 0.0021988 Arg of perigee: 083.9129 deg Mean anomaly: 335.6270 deg Mean motion: 14.85779011 rev/day Decay rate: 8.15e-06 rev/day^2 Epoch rev: 8003 Checksum: 303 Satellite: NOAA-14 Catalog number: 23455 Epoch time: 14282.43356353 Element set: 937 Inclination: 098.7722 deg RA of node: 003.8102 deg Eccentricity: 0.0010397 Arg of perigee: 077.7149 deg Mean anomaly: 033.5136 deg Mean motion: 14.13990366 rev/day Decay rate: 1.13e-06 rev/day^2 Epoch rev: 2009 Checksum: 285 Satellite: NOAA-15 Catalog number: 25338 Epoch time: 14282.46901249 Element set: 374 Inclination: 098.7611 deg RA of node: 276.1525 deg Eccentricity: 0.0010991 Arg of perigee: 170.8817 deg Mean anomaly: 302.5168 deg Mean motion: 14.25481144 rev/day Decay rate: 2.12e-06 rev/day^2 Epoch rev: 85312 Checksum: 298 Satellite: RESURS Catalog number: 25394 Epoch time: 14282.01729905 Element set: 780 Inclination: 098.4289 deg RA of node: 241.6754 deg Eccentricity: 0.0000279 Arg of perigee: 334.2859 deg Mean anomaly: 067.3378 deg Mean motion: 14.24403431 rev/day Decay rate: 5.9e-07 rev/day^2 Epoch rev: 84452 Checksum: 316 Satellite: FENGYUN1 Catalog number: 25730 Epoch time: 14280.92615610 Element set: 268 Inclination: 098.9203 deg RA of node: 241.3784 deg Eccentricity: 0.0022541 Arg of perigee: 145.8417 deg Mean anomaly: 247.3734 deg Mean motion: 14.12199832 rev/day Decay rate: 2.696e-05 rev/day^2 Epoch rev: 79343 Checksum: 310 Satellite: OKEAN-0 Catalog number: 25860 Epoch time: 14281.02580054 Element set: 384 Inclination: 098.0586 deg RA of node: 244.3161 deg Eccentricity: 0.0001886 Arg of perigee: 092.5395 deg Mean anomaly: 311.3166 deg Mean motion: 14.75443376 rev/day Decay rate: 8.46e-06 rev/day^2 Epoch rev: 81879 Checksum: 315 Satellite: NOAA-16 Catalog number: 26536 Epoch time: 14282.43792517 Element set: 873 Inclination: 098.9776 deg RA of node: 343.2259 deg Eccentricity: 0.0010165 Arg of perigee: 216.2927 deg Mean anomaly: 143.7556 deg Mean motion: 14.13041760 rev/day Decay rate: 1.43e-06 rev/day^2 Epoch rev: 72424 Checksum: 313 Satellite: NOAA-17 Catalog number: 27453 Epoch time: 14282.45273582 Element set: 763 Inclination: 098.3217 deg RA of node: 276.1876 deg Eccentricity: 0.0011679 Arg of perigee: 192.8480 deg Mean anomaly: 167.2405 deg Mean motion: 14.24788524 rev/day Decay rate: 2.14e-06 rev/day^2 Epoch rev: 63895 Checksum: 339 Satellite: NOAA-18 Catalog number: 28654 Epoch time: 14282.47571288 Element set: 285 Inclination: 099.1618 deg RA of node: 264.3413 deg Eccentricity: 0.0013424 Arg of perigee: 305.6873 deg Mean anomaly: 163.3947 deg Mean motion: 14.12075494 rev/day Decay rate: 1.00e-06 rev/day^2 Epoch rev: 48369 Checksum: 322 Satellite: NOAA-19 Catalog number: 33591 Epoch time: 14282.46352666 Element set: 418 Inclination: 098.9565 deg RA of node: 227.2151 deg Eccentricity: 0.0014512 Arg of perigee: 153.6416 deg Mean anomaly: 339.7390 deg Mean motion: 14.11777637 rev/day Decay rate: 2.08e-06 rev/day^2 Epoch rev: 29211 Checksum: 313 /EX SB KEPS @ AMSAT $ORB14282.M Orbital Elements 14282.MISC HR AMSAT ORBITAL ELEMENTS FOR MANNED AND MISCELLANEOUS SATELLITES FROM WA5QGD FORT WORTH,TX October 9, 2014 BID: ORB14282.M TO ALL RADIO AMATEURS BT Satellite: HUBBLE Catalog number: 20580 Epoch time: 14280.68957903 Element set: 130 Inclination: 028.4715 deg RA of node: 017.3693 deg Eccentricity: 0.0003407 Arg of perigee: 054.4856 deg Mean anomaly: 076.5281 deg Mean motion: 15.05877643 rev/day Decay rate: 3.105e-05 rev/day^2 Epoch rev: 14169 Checksum: 296 Satellite: ISS Catalog number: 25544 Epoch time: 14282.56268867 Element set: 219 Inclination: 051.6441 deg RA of node: 252.6474 deg Eccentricity: 0.0002603 Arg of perigee: 243.7912 deg Mean anomaly: 116.3328 deg Mean motion: 15.50304420 rev/day Decay rate: 9.696e-05 rev/day^2 Epoch rev: 90907 Checksum: 298 Satellite: CO-58 Catalog number: 28895 Epoch time: 14281.48156275 Element set: 893 Inclination: 097.8268 deg RA of node: 117.4422 deg Eccentricity: 0.0017545 Arg of perigee: 017.5963 deg Mean anomaly: 342.5844 deg Mean motion: 14.62075955 rev/day Decay rate: 1.134e-05 rev/day^2 Epoch rev: 47680 Checksum: 350 Satellite: FALCON Catalog number: 30776 Epoch time: 14281.97774422 Element set: 978 Inclination: 035.4269 deg RA of node: 128.5416 deg Eccentricity: 0.0002542 Arg of perigee: 254.4904 deg Mean anomaly: 218.7078 deg Mean motion: 15.17880658 rev/day Decay rate: 9.527e-05 rev/day^2 Epoch rev: 41802 Checksum: 330 Satellite: MAST Catalog number: 31126 Epoch time: 14281.79413464 Element set: 173 Inclination: 097.9285 deg RA of node: 256.8477 deg Eccentricity: 0.0091620 Arg of perigee: 000.9532 deg Mean anomaly: 116.2326 deg Mean motion: 14.55453803 rev/day Decay rate: 1.440e-05 rev/day^2 Epoch rev: 39691 Checksum: 298 Satellite: CAPE1 Catalog number: 31130 Epoch time: 14281.44205320 Element set: 179 Inclination: 097.9491 deg RA of node: 253.3114 deg Eccentricity: 0.0099068 Arg of perigee: 020.5942 deg Mean anomaly: 339.9206 deg Mean motion: 14.54668537 rev/day Decay rate: 1.967e-05 rev/day^2 Epoch rev: 39627 Checksum: 313 Satellite: COMPASS Catalog number: 32787 Epoch time: 14282.13543077 Element set: 68 Inclination: 097.6882 deg RA of node: 332.3634 deg Eccentricity: 0.0014390 Arg of perigee: 159.6369 deg Mean anomaly: 200.5425 deg Mean motion: 14.88508916 rev/day Decay rate: 3.717e-05 rev/day^2 Epoch rev: 34913 Checksum: 322 Satellite: AAUSAT2 Catalog number: 32788 Epoch time: 14281.14278675 Element set: 55 Inclination: 097.6898 deg RA of node: 332.5285 deg Eccentricity: 0.0013851 Arg of perigee: 160.5564 deg Mean anomaly: 199.6185 deg Mean motion: 14.89270607 rev/day Decay rate: 4.599e-05 rev/day^2 Epoch rev: 34905 Checksum: 355 Satellite: DO-64 Catalog number: 32789 Epoch time: 14282.14597905 Element set: 99 Inclination: 097.7093 deg RA of node: 341.1478 deg Eccentricity: 0.0012764 Arg of perigee: 141.9508 deg Mean anomaly: 270.8019 deg Mean motion: 14.94694997 rev/day Decay rate: 7.034e-05 rev/day^2 Epoch rev: 34951 Checksum: 359 Satellite: CO-66 Catalog number: 32791 Epoch time: 14282.13102739 Element set: 50 Inclination: 097.6876 deg RA of node: 330.8782 deg Eccentricity: 0.0014951 Arg of perigee: 163.9178 deg Mean anomaly: 196.2516 deg Mean motion: 14.87045231 rev/day Decay rate: 3.001e-05 rev/day^2 Epoch rev: 34898 Checksum: 321 Satellite: RS-30 Catalog number: 32953 Epoch time: 14282.06423130 Element set: 370 Inclination: 082.4999 deg RA of node: 130.4168 deg Eccentricity: 0.0018163 Arg of perigee: 268.4567 deg Mean anomaly: 206.2133 deg Mean motion: 12.43051728 rev/day Decay rate: -3.0e-08 rev/day^2 Epoch rev: 28940 Checksum: 281 Satellite: METEOR-M Catalog number: 35865 Epoch time: 14282.16277837 Element set: 974 Inclination: 098.5376 deg RA of node: 326.0519 deg Eccentricity: 0.0003545 Arg of perigee: 120.5489 deg Mean anomaly: 307.1200 deg Mean motion: 14.21935718 rev/day Decay rate: 6.9e-07 rev/day^2 Epoch rev: 26253 Checksum: 313 Satellite: RS-38 Catalog number: 35869 Epoch time: 14282.10186148 Element set: 882 Inclination: 098.5295 deg RA of node: 325.7389 deg Eccentricity: 0.0005750 Arg of perigee: 121.0929 deg Mean anomaly: 291.7606 deg Mean motion: 14.22231968 rev/day Decay rate: 3.3e-07 rev/day^2 Epoch rev: 26256 Checksum: 329 Satellite: JUGNU Catalog number: 37839 Epoch time: 14281.37384411 Element set: 712 Inclination: 019.9616 deg RA of node: 288.9300 deg Eccentricity: 0.0018991 Arg of perigee: 150.8082 deg Mean anomaly: 356.9036 deg Mean motion: 14.12346429 rev/day Decay rate: 5.16e-06 rev/day^2 Epoch rev: 15457 Checksum: 312 Satellite: SRMSAT Catalog number: 37841 Epoch time: 14281.37989167 Element set: 714 Inclination: 019.9723 deg RA of node: 310.4895 deg Eccentricity: 0.0012052 Arg of perigee: 086.5065 deg Mean anomaly: 026.9072 deg Mean motion: 14.10381868 rev/day Decay rate: 4.74e-06 rev/day^2 Epoch rev: 15435 Checksum: 310 Satellite: RAX-2 Catalog number: 37853 Epoch time: 14282.16390796 Element set: 930 Inclination: 101.7044 deg RA of node: 006.2344 deg Eccentricity: 0.0211598 Arg of perigee: 086.7465 deg Mean anomaly: 331.7733 deg Mean motion: 14.90927911 rev/day Decay rate: 9.263e-05 rev/day^2 Epoch rev: 15963 Checksum: 319 Satellite: AUBIESAT Catalog number: 37854 Epoch time: 14282.17858573 Element set: 929 Inclination: 101.7085 deg RA of node: 008.5315 deg Eccentricity: 0.0208943 Arg of perigee: 083.2205 deg Mean anomaly: 333.7932 deg Mean motion: 14.92428856 rev/day Decay rate: 9.710e-05 rev/day^2 Epoch rev: 15970 Checksum: 324 Satellite: HRBE Catalog number: 37855 Epoch time: 14282.14574515 Element set: 946 Inclination: 101.7090 deg RA of node: 007.6614 deg Eccentricity: 0.0211488 Arg of perigee: 084.9535 deg Mean anomaly: 277.5772 deg Mean motion: 14.91637207 rev/day Decay rate: 9.259e-05 rev/day^2 Epoch rev: 15965 Checksum: 332 Satellite: RS-39 Catalog number: 38051 Epoch time: 14282.64026108 Element set: 4 Inclination: 051.6140 deg RA of node: 357.0326 deg Eccentricity: 0.0008993 Arg of perigee: 347.7568 deg Mean anomaly: 012.3662 deg Mean motion: 16.03575995 rev/day Decay rate: 1.666951e-02 rev/day^2 Epoch rev: 15211 Checksum: 309 Satellite: E-STAR Catalog number: 38079 Epoch time: 14281.79925936 Element set: 6 Inclination: 069.4435 deg RA of node: 048.2760 deg Eccentricity: 0.0289232 Arg of perigee: 190.0003 deg Mean anomaly: 294.0280 deg Mean motion: 15.30355844 rev/day Decay rate: 2.38222e-03 rev/day^2 Epoch rev: 14069 Checksum: 305 Satellite: GOLIAT Catalog number: 38085 Epoch time: 14282.59388317 Element set: 439 Inclination: 069.4486 deg RA of node: 056.2867 deg Eccentricity: 0.0320218 Arg of perigee: 193.3311 deg Mean anomaly: 165.9711 deg Mean motion: 15.22092444 rev/day Decay rate: 2.26331e-03 rev/day^2 Epoch rev: 14054 Checksum: 309 Satellite: HORYU-2 Catalog number: 38340 Epoch time: 14281.41930851 Element set: 989 Inclination: 098.2744 deg RA of node: 240.6305 deg Eccentricity: 0.0011919 Arg of perigee: 171.9300 deg Mean anomaly: 188.2092 deg Mean motion: 14.72899576 rev/day Decay rate: 2.998e-05 rev/day^2 Epoch rev: 12846 Checksum: 335 Satellite: RS-40 Catalog number: 38735 Epoch time: 14281.49352194 Element set: 707 Inclination: 082.4762 deg RA of node: 216.8870 deg Eccentricity: 0.0017749 Arg of perigee: 011.7518 deg Mean anomaly: 348.3976 deg Mean motion: 12.42561369 rev/day Decay rate: 2.4e-07 rev/day^2 Epoch rev: 9965 Checksum: 334 Satellite: PROITERES Catalog number: 38756 Epoch time: 14282.62973840 Element set: 294 Inclination: 098.2264 deg RA of node: 012.7954 deg Eccentricity: 0.0013013 Arg of perigee: 023.8946 deg Mean anomaly: 336.3371 deg Mean motion: 14.75151852 rev/day Decay rate: 1.894e-05 rev/day^2 Epoch rev: 11204 Checksum: 302 Satellite: BEESAT-3 Catalog number: 39134 Epoch time: 14282.08325564 Element set: 732 Inclination: 064.8739 deg RA of node: 137.7474 deg Eccentricity: 0.0035283 Arg of perigee: 287.9443 deg Mean anomaly: 071.7833 deg Mean motion: 15.06625842 rev/day Decay rate: 6.633e-05 rev/day^2 Epoch rev: 8081 Checksum: 325 Satellite: BEESAT-2 Catalog number: 39136 Epoch time: 14282.66365781 Element set: 717 Inclination: 064.8738 deg RA of node: 136.7733 deg Eccentricity: 0.0035374 Arg of perigee: 287.4681 deg Mean anomaly: 072.3075 deg Mean motion: 15.05847544 rev/day Decay rate: 1.2161e-04 rev/day^2 Epoch rev: 8088 Checksum: 332 Satellite: LO-75 Catalog number: 39382 Epoch time: 14282.50483389 Element set: 453 Inclination: 040.4832 deg RA of node: 115.2970 deg Eccentricity: 0.0023914 Arg of perigee: 327.9969 deg Mean anomaly: 031.9846 deg Mean motion: 15.77492134 rev/day Decay rate: 5.39363e-03 rev/day^2 Epoch rev: 46872 Checksum: 353 Satellite: ZACUBE-1 Catalog number: 39417 Epoch time: 14282.15915744 Element set: 434 Inclination: 097.7642 deg RA of node: 348.8216 deg Eccentricity: 0.0061025 Arg of perigee: 232.4104 deg Mean anomaly: 127.1557 deg Mean motion: 14.78446895 rev/day Decay rate: 2.164e-05 rev/day^2 Epoch rev: 4753 Checksum: 311 Satellite: TRITON-1 Catalog number: 39427 Epoch time: 14282.14048366 Element set: 286 Inclination: 097.7520 deg RA of node: 342.2997 deg Eccentricity: 0.0116546 Arg of perigee: 247.4346 deg Mean anomaly: 111.4492 deg Mean motion: 14.65662669 rev/day Decay rate: 1.527e-05 rev/day^2 Epoch rev: 4708 Checksum: 326 Satellite: DELFIN3XT Catalog number: 39428 Epoch time: 14282.08416721 Element set: 290 Inclination: 097.7512 deg RA of node: 341.1341 deg Eccentricity: 0.0126616 Arg of perigee: 250.6083 deg Mean anomaly: 108.1399 deg Mean motion: 14.63738867 rev/day Decay rate: 2.486e-05 rev/day^2 Epoch rev: 4699 Checksum: 320 Satellite: GOMX-1 Catalog number: 39430 Epoch time: 14282.10616668 Element set: 887 Inclination: 097.7456 deg RA of node: 337.9881 deg Eccentricity: 0.0154726 Arg of perigee: 259.6522 deg Mean anomaly: 098.7205 deg Mean motion: 14.57094479 rev/day Decay rate: 1.087e-05 rev/day^2 Epoch rev: 4680 Checksum: 351 Satellite: MO-76 Catalog number: 39436 Epoch time: 14282.03734753 Element set: 368 Inclination: 097.7711 deg RA of node: 354.0227 deg Eccentricity: 0.0024600 Arg of perigee: 230.4985 deg Mean anomaly: 129.4059 deg Mean motion: 14.92843980 rev/day Decay rate: 1.7896e-04 rev/day^2 Epoch rev: 4784 Checksum: 342 Satellite: LO-74 Catalog number: 39440 Epoch time: 14282.10357917 Element set: 281 Inclination: 097.7598 deg RA of node: 346.1917 deg Eccentricity: 0.0082817 Arg of perigee: 237.6600 deg Mean anomaly: 121.6572 deg Mean motion: 14.73367474 rev/day Decay rate: 1.829e-05 rev/day^2 Epoch rev: 4735 Checksum: 336 Satellite: PUCPSAT-1 Catalog number: 39442 Epoch time: 14282.14437941 Element set: 280 Inclination: 097.7702 deg RA of node: 352.8247 deg Eccentricity: 0.0033430 Arg of perigee: 229.1181 deg Mean anomaly: 130.7138 deg Mean motion: 14.86607063 rev/day Decay rate: 3.736e-05 rev/day^2 Epoch rev: 4655 Checksum: 295 Satellite: SHINAISAT Catalog number: 39572 Epoch time: 14281.54029251 Element set: 334 Inclination: 065.0070 deg RA of node: 006.0859 deg Eccentricity: 0.0021473 Arg of perigee: 286.3217 deg Mean anomaly: 073.5579 deg Mean motion: 15.85137857 rev/day Decay rate: 1.67579e-03 rev/day^2 Epoch rev: 3496 Checksum: 321 Satellite: TEIKYOSAT Catalog number: 39576 Epoch time: 14282.60723334 Element set: 379 Inclination: 065.0002 deg RA of node: 357.0667 deg Eccentricity: 0.0019757 Arg of perigee: 295.2331 deg Mean anomaly: 064.7291 deg Mean motion: 16.01568832 rev/day Decay rate: 4.74253e-03 rev/day^2 Epoch rev: 3522 Checksum: 307 Satellite: CO-77 Catalog number: 39577 Epoch time: 14244.78324653 Element set: 379 Inclination: 064.9920 deg RA of node: 123.7668 deg Eccentricity: 0.0014904 Arg of perigee: 269.7208 deg Mean anomaly: 091.1897 deg Mean motion: 16.43552757 rev/day Decay rate: 1.0543803e-01 rev/day^2 Epoch rev: 2938 Checksum: 363 Satellite: SPROUT Catalog number: 39770 Epoch time: 14282.11734726 Element set: 157 Inclination: 097.8754 deg RA of node: 017.5420 deg Eccentricity: 0.0008792 Arg of perigee: 304.1275 deg Mean anomaly: 055.9104 deg Mean motion: 14.82853102 rev/day Decay rate: 1.197e-05 rev/day^2 Epoch rev: 2042 Checksum: 286 Satellite: POPSAT-HIP1 Catalog number: 40028 Epoch time: 14282.54923881 Element set: 344 Inclination: 097.9744 deg RA of node: 177.4028 deg Eccentricity: 0.0013397 Arg of perigee: 285.2128 deg Mean anomaly: 074.8121 deg Mean motion: 14.85432261 rev/day Decay rate: 3.726e-05 rev/day^2 Epoch rev: 1655 Checksum: 306 Satellite: EO-80 Catalog number: 40032 Epoch time: 14282.43174194 Element set: 334 Inclination: 097.9696 deg RA of node: 177.1867 deg Eccentricity: 0.0011158 Arg of perigee: 280.1827 deg Mean anomaly: 079.8644 deg Mean motion: 14.85195253 rev/day Decay rate: 3.725e-05 rev/day^2 Epoch rev: 1668 Checksum: 332 Satellite: VELOX-1 Catalog number: 40057 Epoch time: 14282.43212204 Element set: 330 Inclination: 098.2427 deg RA of node: 351.3504 deg Eccentricity: 0.0010876 Arg of perigee: 326.1786 deg Mean anomaly: 033.8728 deg Mean motion: 14.74292409 rev/day Decay rate: 3.452e-05 rev/day^2 Epoch rev: 1491 Checksum: 277 Satellite: DAURIA DX 1 Catalog number: 40071 Epoch time: 14282.37978338 Element set: 302 Inclination: 098.3914 deg RA of node: 338.1419 deg Eccentricity: 0.0008168 Arg of perigee: 333.9597 deg Mean anomaly: 026.1199 deg Mean motion: 14.79655784 rev/day Decay rate: 1.596e-05 rev/day^2 Epoch rev: 1369 Checksum: 340 Satellite: UKUBE-1 Catalog number: 40074 Epoch time: 14282.39033847 Element set: 304 Inclination: 098.3927 deg RA of node: 338.3013 deg Eccentricity: 0.0004675 Arg of perigee: 351.8306 deg Mean anomaly: 008.2820 deg Mean motion: 14.80671544 rev/day Decay rate: 3.415e-05 rev/day^2 Epoch rev: 1370 Checksum: 277 Satellite: CHASQUI-1 Catalog number: 40117 Epoch time: 14282.31380635 Element set: 179 Inclination: 051.6445 deg RA of node: 252.9402 deg Eccentricity: 0.0004096 Arg of perigee: 132.8743 deg Mean anomaly: 007.7971 deg Mean motion: 15.56588335 rev/day Decay rate: 9.4511e-04 rev/day^2 Epoch rev: 801 Checksum: 290 /EX